contact:dominique.lefevre@mio.osupytheas.fr, maurice.libes@osupytheas.fr, didier.mallarino@osupytheas.fr
Project:EMSO http://www.emso-fr.org/EMSO-France
Depth: 2436.0 m
Title:EMSO Ligure Ouest : Data MII capteur CSTAR
DateTime,Latitude,Longitude,Instrument_Serial,Reference_Counts,Signal_Counts,Corrected_Signal_raw_counts,Calculated_Beam_c_inverse_meters,Internal_thermistor_counts
DateTime,Latitude,Longitude,Instrument_Serial,Reference_Counts,Signal_Counts,Corrected_Signal_raw_counts,Calculated_Beam_c_inverse_meters,Internal_thermistor_counts
2020-01-07T00:02:51,42.805,6.029,CST-1368DR,7011,9826,15266,0.091,550
2020-01-07T00:05:53,42.805,6.029,CST-1368DR,7011,9825,15264,0.091,551
2020-01-07T00:08:55,42.805,6.029,CST-1368DR,7011,9827,15267,0.090,551
2020-01-07T00:11:56,42.805,6.029,CST-1368DR,7011,9827,15266,0.091,551
2020-01-07T00:14:58,42.805,6.029,CST-1368DR,7011,9825,15263,0.091,551
2020-01-07T00:18:00,42.805,6.029,CST-1368DR,7011,9828,15268,0.090,550
2020-01-07T00:21:01,42.805,6.029,CST-1368DR,7011,9826,15266,0.091,551
2020-01-07T00:24:03,42.805,6.029,CST-1368DR,7011,9827,15266,0.091,551
2020-01-07T00:27:05,42.805,6.029,CST-1368DR,7011,9827,15267,0.090,551
2020-01-07T00:30:06,42.805,6.029,CST-1368DR,7011,9826,15264,0.091,551
2020-01-07T00:33:08,42.805,6.029,CST-1368DR,7011,9828,15268,0.090,551
2020-01-07T00:36:10,42.805,6.029,CST-1368DR,7011,9826,15264,0.091,551
2020-01-07T00:39:11,42.805,6.029,CST-1368DR,7010,9827,15268,0.090,551
2020-01-07T00:42:13,42.805,6.029,CST-1368DR,7011,9827,15266,0.091,551
2020-01-07T00:45:15,42.805,6.029,CST-1368DR,7011,9827,15266,0.091,550
2020-01-07T00:48:16,42.805,6.029,CST-1368DR,7011,9827,15267,0.090,550
2020-01-07T00:51:18,42.805,6.029,CST-1368DR,7010,9827,15268,0.090,551
2020-01-07T00:54:20,42.805,6.029,CST-1368DR,7011,9827,15266,0.091,551
2020-01-07T00:57:21,42.805,6.029,CST-1368DR,7010,9827,15268,0.090,551
2020-01-07T01:00:23,42.805,6.029,CST-1368DR,7010,9827,15268,0.090,551
2020-01-07T01:03:25,42.805,6.029,CST-1368DR,7010,9826,15267,0.090,551
2020-01-07T01:06:26,42.805,6.029,CST-1368DR,7011,9825,15264,0.091,551
2020-01-07T01:09:28,42.805,6.029,CST-1368DR,7010,9826,15267,0.090,551
2020-01-07T01:12:29,42.805,6.029,CST-1368DR,7010,9826,15268,0.090,551
2020-01-07T01:15:31,42.805,6.029,CST-1368DR,7010,9827,15268,0.090,551
2020-01-07T01:18:33,42.805,6.029,CST-1368DR,7010,9825,15266,0.091,551
2020-01-07T01:21:34,42.805,6.029,CST-1368DR,7010,9827,15268,0.090,550
2020-01-07T01:24:36,42.805,6.029,CST-1368DR,7010,9827,15269,0.090,551
2020-01-07T01:27:38,42.805,6.029,CST-1368DR,7010,9825,15266,0.091,551
2020-01-07T01:30:40,42.805,6.029,CST-1368DR,7010,9826,15267,0.090,551
2020-01-07T01:33:41,42.805,6.029,CST-1368DR,7010,9825,15266,0.091,550
2020-01-07T01:36:43,42.805,6.029,CST-1368DR,7010,9826,15267,0.090,551
2020-01-07T01:39:44,42.805,6.029,CST-1368DR,7010,9826,15267,0.090,551
2020-01-07T01:42:46,42.805,6.029,CST-1368DR,7010,9827,15269,0.090,551
2020-01-07T01:45:48,42.805,6.029,CST-1368DR,7010,9827,15269,0.090,551
2020-01-07T01:48:49,42.805,6.029,CST-1368DR,7010,9827,15269,0.090,551
2020-01-07T01:51:51,42.805,6.029,CST-1368DR,7010,9827,15268,0.090,551
2020-01-07T01:54:53,42.805,6.029,CST-1368DR,7010,9827,15268,0.090,551
2020-01-07T01:57:54,42.805,6.029,CST-1368DR,7010,9826,15268,0.090,551
2020-01-07T02:00:56,42.805,6.029,CST-1368DR,7010,9828,15270,0.090,551
2020-01-07T02:03:58,42.805,6.029,CST-1368DR,7010,9827,15268,0.090,551
2020-01-07T02:06:59,42.805,6.029,CST-1368DR,7010,9827,15269,0.090,550
2020-01-07T02:10:01,42.805,6.029,CST-1368DR,7010,9828,15270,0.090,551
2020-01-07T02:13:03,42.805,6.029,CST-1368DR,7010,9828,15270,0.090,551
2020-01-07T02:16:04,42.805,6.029,CST-1368DR,7010,9827,15268,0.090,550
2020-01-07T02:19:06,42.805,6.029,CST-1368DR,7010,9826,15267,0.090,551
2020-01-07T02:22:08,42.805,6.029,CST-1368DR,7010,9827,15268,0.090,551
2020-01-07T02:25:10,42.805,6.029,CST-1368DR,7010,9825,15265,0.091,551
2020-01-07T02:28:12,42.805,6.029,CST-1368DR,7010,9825,15265,0.091,551
2020-01-07T02:31:13,42.805,6.029,CST-1368DR,7010,9826,15267,0.090,551
2020-01-07T02:34:15,42.805,6.029,CST-1368DR,7010,9819,15256,0.093,550
2020-01-07T02:37:16,42.805,6.029,CST-1368DR,7010,9826,15267,0.090,551
2020-01-07T02:40:18,42.805,6.029,CST-1368DR,7010,9825,15265,0.091,551
2020-01-07T02:43:20,42.805,6.029,CST-1368DR,7010,9827,15268,0.090,550
2020-01-07T02:46:21,42.805,6.029,CST-1368DR,7010,9822,15260,0.092,551
2020-01-07T02:49:23,42.805,6.029,CST-1368DR,7010,9825,15266,0.091,551
2020-01-07T02:52:25,42.805,6.029,CST-1368DR,7010,9826,15267,0.090,551
2020-01-07T02:55:26,42.805,6.029,CST-1368DR,7010,9825,15266,0.091,551
2020-01-07T02:58:28,42.805,6.029,CST-1368DR,7010,9826,15267,0.090,551
2020-01-07T03:01:30,42.805,6.029,CST-1368DR,7010,9827,15268,0.090,551
2020-01-07T03:04:31,42.805,6.029,CST-1368DR,7010,9826,15267,0.090,551
2020-01-07T03:07:33,42.805,6.029,CST-1368DR,7010,9827,15269,0.090,550
2020-01-07T03:10:35,42.805,6.029,CST-1368DR,7010,9820,15258,0.093,551
2020-01-07T03:13:36,42.805,6.029,CST-1368DR,7010,9827,15269,0.090,551
2020-01-07T03:16:38,42.805,6.029,CST-1368DR,7010,9825,15266,0.091,551
2020-01-07T03:19:39,42.805,6.029,CST-1368DR,7010,9826,15267,0.090,551
2020-01-07T03:22:41,42.805,6.029,CST-1368DR,7010,9823,15262,0.092,551
2020-01-07T03:25:43,42.805,6.029,CST-1368DR,7010,9826,15267,0.090,551
2020-01-07T03:28:44,42.805,6.029,CST-1368DR,7010,9823,15263,0.091,551
2020-01-07T03:31:46,42.805,6.029,CST-1368DR,7010,9825,15266,0.091,551
2020-01-07T03:34:48,42.805,6.029,CST-1368DR,7010,9826,15267,0.090,551
2020-01-07T03:37:50,42.805,6.029,CST-1368DR,7009,9825,15268,0.090,551
2020-01-07T03:40:51,42.805,6.029,CST-1368DR,7010,9826,15268,0.090,551
2020-01-07T03:43:53,42.805,6.029,CST-1368DR,7010,9827,15269,0.090,551
2020-01-07T03:46:55,42.805,6.029,CST-1368DR,7009,9825,15267,0.090,551
2020-01-07T03:49:56,42.805,6.029,CST-1368DR,7009,9826,15269,0.090,551
2020-01-07T03:52:58,42.805,6.029,CST-1368DR,7009,9826,15269,0.090,551
2020-01-07T03:56:00,42.805,6.029,CST-1368DR,7009,9825,15268,0.090,550
2020-01-07T03:59:01,42.805,6.029,CST-1368DR,7009,9826,15269,0.090,551
2020-01-07T04:02:03,42.805,6.029,CST-1368DR,7009,9826,15270,0.090,551
2020-01-07T04:05:05,42.805,6.029,CST-1368DR,7009,9826,15270,0.090,550
2020-01-07T04:08:06,42.805,6.029,CST-1368DR,7009,9826,15269,0.090,551
2020-01-07T04:11:08,42.805,6.029,CST-1368DR,7009,9826,15269,0.090,551
2020-01-07T04:14:09,42.805,6.029,CST-1368DR,7009,9826,15269,0.090,551
2020-01-07T04:17:11,42.805,6.029,CST-1368DR,7009,9826,15269,0.090,551
2020-01-07T04:20:13,42.805,6.029,CST-1368DR,7009,9827,15271,0.089,551
2020-01-07T04:23:14,42.805,6.029,CST-1368DR,7009,9826,15269,0.090,551
2020-01-07T04:26:16,42.805,6.029,CST-1368DR,7009,9825,15268,0.090,551
2020-01-07T04:29:18,42.805,6.029,CST-1368DR,7009,9825,15267,0.090,551
2020-01-07T04:32:19,42.805,6.029,CST-1368DR,7009,9825,15268,0.090,551
2020-01-07T04:35:21,42.805,6.029,CST-1368DR,7009,9823,15265,0.091,551
2020-01-07T04:38:23,42.805,6.029,CST-1368DR,7009,9823,15264,0.091,551
2020-01-07T04:41:24,42.805,6.029,CST-1368DR,7009,9825,15268,0.090,550
2020-01-07T04:44:26,42.805,6.029,CST-1368DR,7009,9824,15266,0.091,551
2020-01-07T04:47:28,42.805,6.029,CST-1368DR,7009,9826,15269,0.090,551
2020-01-07T04:50:29,42.805,6.029,CST-1368DR,7009,9824,15267,0.090,551
2020-01-07T04:53:31,42.805,6.029,CST-1368DR,7009,9824,15266,0.091,551
2020-01-07T04:56:33,42.805,6.029,CST-1368DR,7009,9826,15269,0.090,551
2020-01-07T04:59:34,42.805,6.029,CST-1368DR,7009,9825,15267,0.090,551
2020-01-07T05:02:36,42.805,6.029,CST-1368DR,7009,9825,15267,0.090,551
2020-01-07T05:05:37,42.805,6.029,CST-1368DR,7009,9826,15269,0.090,551
2020-01-07T05:08:39,42.805,6.029,CST-1368DR,7009,9825,15267,0.090,551
2020-01-07T05:11:41,42.805,6.029,CST-1368DR,7009,9824,15265,0.091,551
2020-01-07T05:14:42,42.805,6.029,CST-1368DR,7009,9825,15268,0.090,551
2020-01-07T05:17:44,42.805,6.029,CST-1368DR,7009,9824,15266,0.091,550
2020-01-07T05:20:46,42.805,6.029,CST-1368DR,7009,9825,15268,0.090,551
2020-01-07T05:23:47,42.805,6.029,CST-1368DR,7009,9826,15269,0.090,551
2020-01-07T05:26:49,42.805,6.029,CST-1368DR,7009,9826,15269,0.090,550
2020-01-07T05:29:51,42.805,6.029,CST-1368DR,7009,9824,15266,0.091,551
2020-01-07T05:32:52,42.805,6.029,CST-1368DR,7009,9825,15267,0.090,551
2020-01-07T05:35:54,42.805,6.029,CST-1368DR,7009,9825,15267,0.090,550
2020-01-07T05:38:55,42.805,6.029,CST-1368DR,7009,9824,15265,0.091,551
2020-01-07T05:41:57,42.805,6.029,CST-1368DR,7009,9825,15268,0.090,551
2020-01-07T05:44:59,42.805,6.029,CST-1368DR,7009,9816,15254,0.094,551
2020-01-07T05:48:00,42.805,6.029,CST-1368DR,7009,9823,15264,0.091,550
2020-01-07T05:51:02,42.805,6.029,CST-1368DR,7009,9823,15264,0.091,551
2020-01-07T05:54:04,42.805,6.029,CST-1368DR,7009,9820,15259,0.093,550
2020-01-07T05:57:05,42.805,6.029,CST-1368DR,7009,9822,15263,0.091,551
2020-01-07T06:00:07,42.805,6.029,CST-1368DR,7008,9823,15266,0.091,551
2020-01-07T06:03:09,42.805,6.029,CST-1368DR,7008,9821,15264,0.091,551
2020-01-07T06:06:10,42.805,6.029,CST-1368DR,7008,9822,15265,0.091,551
2020-01-07T06:09:12,42.805,6.029,CST-1368DR,7008,9819,15260,0.092,551
2020-01-07T06:12:14,42.805,6.029,CST-1368DR,7008,9823,15267,0.090,551
2020-01-07T06:15:15,42.805,6.029,CST-1368DR,7008,9820,15262,0.092,551
2020-01-07T06:18:17,42.805,6.029,CST-1368DR,7008,9814,15252,0.094,551
2020-01-07T06:21:19,42.805,6.029,CST-1368DR,7008,9819,15260,0.092,551
2020-01-07T06:24:20,42.805,6.029,CST-1368DR,7008,9815,15254,0.094,550
2020-01-07T06:27:22,42.805,6.029,CST-1368DR,7008,9823,15267,0.090,551
2020-01-07T06:30:23,42.805,6.029,CST-1368DR,7008,9824,15267,0.090,551
2020-01-07T06:33:25,42.805,6.029,CST-1368DR,7008,9817,15257,0.093,550
2020-01-07T06:36:27,42.805,6.029,CST-1368DR,7008,9822,15264,0.091,551
2020-01-07T06:39:28,42.805,6.029,CST-1368DR,7008,9820,15261,0.092,551
2020-01-07T06:42:30,42.805,6.029,CST-1368DR,7008,9821,15264,0.091,551
2020-01-07T06:45:32,42.805,6.029,CST-1368DR,7008,9823,15267,0.090,551
2020-01-07T06:48:33,42.805,6.029,CST-1368DR,7008,9822,15265,0.091,551
2020-01-07T06:51:35,42.805,6.029,CST-1368DR,7008,9822,15266,0.091,551
2020-01-07T06:54:37,42.805,6.029,CST-1368DR,7008,9821,15264,0.091,551
2020-01-07T06:57:38,42.805,6.029,CST-1368DR,7008,9821,15264,0.091,550
2020-01-07T07:00:40,42.805,6.029,CST-1368DR,7008,9821,15264,0.091,551
2020-01-07T07:03:42,42.805,6.029,CST-1368DR,7008,9821,15264,0.091,551
2020-01-07T07:06:43,42.805,6.029,CST-1368DR,7008,9823,15267,0.090,551
2020-01-07T07:09:45,42.805,6.029,CST-1368DR,7008,9820,15262,0.092,551
2020-01-07T07:12:47,42.805,6.029,CST-1368DR,7008,9822,15265,0.091,551
2020-01-07T07:15:48,42.805,6.029,CST-1368DR,7008,9818,15259,0.093,550
2020-01-07T07:18:50,42.805,6.029,CST-1368DR,7008,9823,15267,0.090,550
2020-01-07T07:21:52,42.805,6.029,CST-1368DR,7008,9819,15261,0.092,551
2020-01-07T07:24:54,42.805,6.029,CST-1368DR,7008,9823,15267,0.090,551
2020-01-07T07:27:55,42.805,6.029,CST-1368DR,7008,9817,15257,0.093,551
2020-01-07T07:30:57,42.805,6.029,CST-1368DR,7009,9820,15260,0.092,551
2020-01-07T07:33:59,42.805,6.029,CST-1368DR,7009,9820,15260,0.092,550
2020-01-07T07:37:00,42.805,6.029,CST-1368DR,7009,9822,15264,0.091,551
2020-01-07T07:40:02,42.805,6.029,CST-1368DR,7008,9818,15259,0.093,551
2020-01-07T07:43:03,42.805,6.029,CST-1368DR,7008,9818,15259,0.093,551
2020-01-07T07:46:05,42.805,6.029,CST-1368DR,7008,9822,15264,0.091,551
2020-01-07T07:49:07,42.805,6.029,CST-1368DR,7008,9821,15264,0.091,551
2020-01-07T07:52:08,42.805,6.029,CST-1368DR,7008,9821,15263,0.091,551
2020-01-07T07:55:10,42.805,6.029,CST-1368DR,7008,9822,15265,0.091,551
2020-01-07T07:58:12,42.805,6.029,CST-1368DR,7008,9823,15266,0.091,551
2020-01-07T08:01:14,42.805,6.029,CST-1368DR,7008,9822,15265,0.091,551
2020-01-07T08:04:15,42.805,6.029,CST-1368DR,7008,9823,15267,0.090,551
2020-01-07T08:07:17,42.805,6.029,CST-1368DR,7008,9822,15266,0.091,551
2020-01-07T08:10:19,42.805,6.029,CST-1368DR,7008,9820,15262,0.092,551
2020-01-07T08:13:20,42.805,6.029,CST-1368DR,7008,9823,15266,0.091,551
2020-01-07T08:16:22,42.805,6.029,CST-1368DR,7008,9823,15266,0.091,550
2020-01-07T08:19:23,42.805,6.029,CST-1368DR,7008,9823,15267,0.090,551
2020-01-07T08:22:25,42.805,6.029,CST-1368DR,7008,9823,15266,0.091,551
2020-01-07T08:25:27,42.805,6.029,CST-1368DR,7008,9818,15259,0.093,551
2020-01-07T08:28:28,42.805,6.029,CST-1368DR,7008,9822,15266,0.091,551
2020-01-07T08:31:30,42.805,6.029,CST-1368DR,7008,9822,15265,0.091,550
2020-01-07T08:34:32,42.805,6.029,CST-1368DR,7008,9818,15258,0.093,551
2020-01-07T08:37:33,42.805,6.029,CST-1368DR,7008,9820,15262,0.092,551
2020-01-07T08:40:35,42.805,6.029,CST-1368DR,7008,9823,15267,0.090,551
2020-01-07T08:43:37,42.805,6.029,CST-1368DR,7008,9821,15264,0.091,551
2020-01-07T08:46:38,42.805,6.029,CST-1368DR,7008,9822,15265,0.091,551
2020-01-07T08:49:40,42.805,6.029,CST-1368DR,7008,9822,15264,0.091,551
2020-01-07T08:52:42,42.805,6.029,CST-1368DR,7007,9814,15255,0.094,551
2020-01-07T08:55:43,42.805,6.029,CST-1368DR,7007,9819,15262,0.092,551
2020-01-07T08:58:45,42.805,6.029,CST-1368DR,7007,9818,15261,0.092,551
2020-01-07T09:01:47,42.805,6.029,CST-1368DR,7007,9820,15263,0.091,551
2020-01-07T09:04:48,42.805,6.029,CST-1368DR,7007,9819,15262,0.092,551
2020-01-07T09:07:50,42.805,6.029,CST-1368DR,7007,9821,15265,0.091,551
2020-01-07T09:10:52,42.805,6.029,CST-1368DR,7007,9820,15264,0.091,551
2020-01-07T09:13:53,42.805,6.029,CST-1368DR,7007,9821,15265,0.091,551
2020-01-07T09:16:55,42.805,6.029,CST-1368DR,7007,9823,15268,0.090,551
2020-01-07T09:19:57,42.805,6.029,CST-1368DR,7007,9820,15264,0.091,551
2020-01-07T09:22:58,42.805,6.029,CST-1368DR,7008,9820,15262,0.092,551
2020-01-07T09:26:00,42.805,6.029,CST-1368DR,7008,9823,15266,0.091,551
2020-01-07T09:29:02,42.805,6.029,CST-1368DR,7008,9822,15265,0.091,551
2020-01-07T09:32:03,42.805,6.029,CST-1368DR,7008,9821,15263,0.091,551
2020-01-07T09:35:05,42.805,6.029,CST-1368DR,7008,9822,15265,0.091,551
2020-01-07T09:38:07,42.805,6.029,CST-1368DR,7008,9819,15261,0.092,551
2020-01-07T09:41:08,42.805,6.029,CST-1368DR,7008,9821,15264,0.091,551
2020-01-07T09:44:10,42.805,6.029,CST-1368DR,7007,9824,15270,0.090,550
2020-01-07T09:47:12,42.805,6.029,CST-1368DR,7007,9822,15267,0.090,551
2020-01-07T09:50:13,42.805,6.029,CST-1368DR,7007,9820,15264,0.091,551
2020-01-07T09:53:15,42.805,6.029,CST-1368DR,7007,9820,15263,0.091,550
2020-01-07T09:56:16,42.805,6.029,CST-1368DR,7006,9821,15268,0.090,551
2020-01-07T09:59:18,42.805,6.029,CST-1368DR,7006,9819,15265,0.091,550
2020-01-07T10:02:20,42.805,6.029,CST-1368DR,7006,9821,15268,0.090,551
2020-01-07T10:05:21,42.805,6.029,CST-1368DR,7006,9821,15268,0.090,551
2020-01-07T10:08:23,42.805,6.029,CST-1368DR,7006,9821,15268,0.090,550
2020-01-07T10:11:25,42.805,6.029,CST-1368DR,7006,9818,15262,0.092,550
2020-01-07T10:14:26,42.805,6.029,CST-1368DR,7006,9818,15263,0.091,550
2020-01-07T10:17:28,42.805,6.029,CST-1368DR,7006,9820,15266,0.091,550
2020-01-07T10:20:30,42.805,6.029,CST-1368DR,7006,9820,15266,0.091,551
2020-01-07T10:23:31,42.805,6.029,CST-1368DR,7006,9820,15266,0.091,551
2020-01-07T10:26:33,42.805,6.029,CST-1368DR,7006,9814,15256,0.093,551
2020-01-07T10:29:35,42.805,6.029,CST-1368DR,7006,9818,15262,0.092,551
2020-01-07T10:32:36,42.805,6.029,CST-1368DR,7007,9816,15258,0.093,550
2020-01-07T10:35:38,42.805,6.029,CST-1368DR,7007,9812,15252,0.094,551
2020-01-07T10:38:40,42.805,6.029,CST-1368DR,7007,9820,15264,0.091,551
2020-01-07T10:41:41,42.805,6.029,CST-1368DR,7007,9806,15242,0.097,551
2020-01-07T10:44:43,42.805,6.029,CST-1368DR,7007,9820,15264,0.091,551
2020-01-07T10:47:45,42.805,6.029,CST-1368DR,7007,9819,15263,0.091,551
2020-01-07T10:50:46,42.805,6.029,CST-1368DR,7007,9819,15263,0.091,551
2020-01-07T10:53:48,42.805,6.029,CST-1368DR,7007,9819,15263,0.091,551
2020-01-07T10:56:50,42.805,6.029,CST-1368DR,7007,9819,15263,0.091,551
2020-01-07T10:59:51,42.805,6.029,CST-1368DR,7008,9820,15261,0.092,551
2020-01-07T11:02:53,42.805,6.029,CST-1368DR,7007,9820,15264,0.091,551
2020-01-07T11:05:55,42.805,6.029,CST-1368DR,7007,9817,15259,0.093,551
2020-01-07T11:08:56,42.805,6.029,CST-1368DR,7008,9820,15262,0.092,550
2020-01-07T11:11:58,42.805,6.029,CST-1368DR,7008,9818,15259,0.093,551
2020-01-07T11:15:00,42.805,6.029,CST-1368DR,7008,9821,15264,0.091,551
2020-01-07T11:18:01,42.805,6.029,CST-1368DR,7008,9822,15265,0.091,551
2020-01-07T11:21:03,42.805,6.029,CST-1368DR,7008,9821,15264,0.091,551
2020-01-07T11:24:04,42.805,6.029,CST-1368DR,7007,9821,15265,0.091,551
2020-01-07T11:27:06,42.805,6.029,CST-1368DR,7007,9811,15250,0.095,551
2020-01-07T11:30:08,42.805,6.029,CST-1368DR,7007,9810,15248,0.095,550
2020-01-07T11:33:09,42.805,6.029,CST-1368DR,7007,9817,15259,0.093,550
2020-01-07T11:36:11,42.805,6.029,CST-1368DR,7007,9820,15264,0.091,551
2020-01-07T11:39:13,42.805,6.029,CST-1368DR,7007,9819,15263,0.091,550
2020-01-07T11:42:14,42.805,6.029,CST-1368DR,7007,9819,15262,0.092,550
2020-01-07T11:45:16,42.805,6.029,CST-1368DR,7007,9821,15266,0.091,551
2020-01-07T11:48:18,42.805,6.029,CST-1368DR,7007,9819,15263,0.091,551
2020-01-07T11:51:19,42.805,6.029,CST-1368DR,7007,9818,15260,0.092,551
2020-01-07T11:54:21,42.805,6.029,CST-1368DR,7007,9812,15252,0.094,550
2020-01-07T11:57:23,42.805,6.029,CST-1368DR,7007,9818,15261,0.092,551
2020-01-07T12:00:24,42.805,6.029,CST-1368DR,7007,9820,15264,0.091,551
2020-01-07T12:03:26,42.805,6.029,CST-1368DR,7007,9822,15267,0.090,550
2020-01-07T12:06:28,42.805,6.029,CST-1368DR,7007,9820,15264,0.091,551
2020-01-07T12:09:29,42.805,6.029,CST-1368DR,7007,9817,15259,0.093,551
2020-01-07T12:12:31,42.805,6.029,CST-1368DR,7007,9821,15266,0.091,551
2020-01-07T12:15:33,42.805,6.029,CST-1368DR,7007,9818,15261,0.092,551
2020-01-07T12:18:34,42.805,6.029,CST-1368DR,7007,9823,15268,0.090,551
2020-01-07T12:21:36,42.805,6.029,CST-1368DR,7007,9822,15266,0.091,551
2020-01-07T12:24:37,42.805,6.029,CST-1368DR,7007,9822,15267,0.090,551
2020-01-07T12:27:39,42.805,6.029,CST-1368DR,7007,9820,15264,0.091,551
2020-01-07T12:30:41,42.805,6.029,CST-1368DR,7007,9821,15266,0.091,551
2020-01-07T12:33:43,42.805,6.029,CST-1368DR,7007,9819,15262,0.092,551
2020-01-07T12:36:44,42.805,6.029,CST-1368DR,7007,9822,15267,0.090,551
2020-01-07T12:39:46,42.805,6.029,CST-1368DR,7007,9822,15267,0.090,551
2020-01-07T12:42:48,42.805,6.029,CST-1368DR,7007,9820,15264,0.091,551
2020-01-07T12:45:49,42.805,6.029,CST-1368DR,7007,9820,15264,0.091,551
2020-01-07T12:48:51,42.805,6.029,CST-1368DR,7007,9821,15266,0.091,551
2020-01-07T12:51:52,42.805,6.029,CST-1368DR,7007,9821,15266,0.091,551
2020-01-07T12:54:54,42.805,6.029,CST-1368DR,7007,9822,15267,0.090,551
2020-01-07T12:57:56,42.805,6.029,CST-1368DR,7007,9822,15267,0.090,551
2020-01-07T13:00:57,42.805,6.029,CST-1368DR,7007,9822,15267,0.090,551
2020-01-07T13:03:59,42.805,6.029,CST-1368DR,7007,9822,15267,0.090,551
2020-01-07T13:07:01,42.805,6.029,CST-1368DR,7007,9821,15266,0.091,551
2020-01-07T13:10:03,42.805,6.029,CST-1368DR,7007,9820,15264,0.091,551
2020-01-07T13:13:04,42.805,6.029,CST-1368DR,7007,9822,15267,0.090,551
2020-01-07T13:16:06,42.805,6.029,CST-1368DR,7007,9821,15266,0.091,551
2020-01-07T13:19:08,42.805,6.029,CST-1368DR,7007,9820,15264,0.091,551
2020-01-07T13:22:09,42.805,6.029,CST-1368DR,7007,9820,15264,0.091,551
2020-01-07T13:25:11,42.805,6.029,CST-1368DR,7007,9822,15267,0.090,551
2020-01-07T13:28:13,42.805,6.029,CST-1368DR,7007,9820,15264,0.091,551
2020-01-07T13:31:14,42.805,6.029,CST-1368DR,7007,9821,15265,0.091,551
2020-01-07T13:34:16,42.805,6.029,CST-1368DR,7007,9820,15264,0.091,551
2020-01-07T13:37:18,42.805,6.029,CST-1368DR,7007,9822,15266,0.091,551
2020-01-07T13:40:19,42.805,6.029,CST-1368DR,7007,9822,15266,0.091,550
2020-01-07T13:43:21,42.805,6.029,CST-1368DR,7007,9820,15264,0.091,551
2020-01-07T13:46:22,42.805,6.029,CST-1368DR,7007,9822,15266,0.091,551
2020-01-07T13:49:24,42.805,6.029,CST-1368DR,7007,9822,15266,0.091,551
2020-01-07T13:52:26,42.805,6.029,CST-1368DR,7007,9822,15267,0.090,551
2020-01-07T13:55:28,42.805,6.029,CST-1368DR,7007,9822,15266,0.091,551
2020-01-07T13:58:29,42.805,6.029,CST-1368DR,7007,9820,15264,0.091,551
2020-01-07T14:01:31,42.805,6.029,CST-1368DR,7007,9820,15264,0.091,551
2020-01-07T14:04:33,42.805,6.029,CST-1368DR,7007,9822,15266,0.091,551
2020-01-07T14:07:34,42.805,6.029,CST-1368DR,7007,9822,15268,0.090,551
2020-01-07T14:10:36,42.805,6.029,CST-1368DR,7007,9821,15265,0.091,551
2020-01-07T14:13:38,42.805,6.029,CST-1368DR,7007,9821,15266,0.091,551
2020-01-07T14:16:39,42.805,6.029,CST-1368DR,7007,9822,15267,0.090,551
2020-01-07T14:19:41,42.805,6.029,CST-1368DR,7007,9822,15266,0.091,551
2020-01-07T14:22:43,42.805,6.029,CST-1368DR,7007,9822,15267,0.090,551
2020-01-07T14:25:44,42.805,6.029,CST-1368DR,7007,9820,15264,0.091,551
2020-01-07T14:28:46,42.805,6.029,CST-1368DR,7007,9821,15266,0.091,551
2020-01-07T14:31:48,42.805,6.029,CST-1368DR,7007,9822,15266,0.091,551
2020-01-07T14:34:49,42.805,6.029,CST-1368DR,7007,9821,15266,0.091,551
2020-01-07T14:37:51,42.805,6.029,CST-1368DR,7007,9822,15266,0.091,551
2020-01-07T14:40:52,42.805,6.029,CST-1368DR,7007,9822,15267,0.090,550
2020-01-07T14:43:54,42.805,6.029,CST-1368DR,7007,9822,15268,0.090,551
2020-01-07T14:46:56,42.805,6.029,CST-1368DR,7007,9822,15268,0.090,551
2020-01-07T14:49:57,42.805,6.029,CST-1368DR,7007,9817,15259,0.093,551
2020-01-07T14:52:59,42.805,6.029,CST-1368DR,7007,9822,15267,0.090,551
2020-01-07T14:56:01,42.805,6.029,CST-1368DR,7007,9820,15264,0.091,550
2020-01-07T14:59:02,42.805,6.029,CST-1368DR,7007,9819,15262,0.092,551
2020-01-07T15:02:04,42.805,6.029,CST-1368DR,7007,9823,15268,0.090,551
2020-01-07T15:05:06,42.805,6.029,CST-1368DR,7007,9820,15264,0.091,551
2020-01-07T15:08:07,42.805,6.029,CST-1368DR,7007,9821,15266,0.091,551
2020-01-07T15:11:09,42.805,6.029,CST-1368DR,7007,9820,15263,0.091,551
2020-01-07T15:14:11,42.805,6.029,CST-1368DR,7007,9823,15268,0.090,551
2020-01-07T15:17:12,42.805,6.029,CST-1368DR,7007,9821,15265,0.091,551
2020-01-07T15:20:14,42.805,6.029,CST-1368DR,7007,9821,15266,0.091,551
2020-01-07T15:23:16,42.805,6.029,CST-1368DR,7007,9821,15266,0.091,550
2020-01-07T15:26:17,42.805,6.029,CST-1368DR,7007,9822,15267,0.090,551
2020-01-07T15:29:19,42.805,6.029,CST-1368DR,7007,9821,15265,0.091,551
2020-01-07T15:32:21,42.805,6.029,CST-1368DR,7007,9822,15267,0.090,551
2020-01-07T15:35:22,42.805,6.029,CST-1368DR,7007,9820,15263,0.091,551
2020-01-07T15:38:24,42.805,6.029,CST-1368DR,7007,9822,15266,0.091,551
2020-01-07T15:41:25,42.805,6.029,CST-1368DR,7007,9822,15268,0.090,551
2020-01-07T15:44:27,42.805,6.029,CST-1368DR,7007,9821,15266,0.091,551
2020-01-07T15:47:29,42.805,6.029,CST-1368DR,7007,9821,15266,0.091,551
2020-01-07T15:50:30,42.805,6.029,CST-1368DR,7007,9821,15265,0.091,551
2020-01-07T15:53:32,42.805,6.029,CST-1368DR,7007,9822,15268,0.090,551
2020-01-07T15:56:34,42.805,6.029,CST-1368DR,7007,9821,15266,0.091,551
2020-01-07T15:59:35,42.805,6.029,CST-1368DR,7007,9820,15264,0.091,551
2020-01-07T16:02:37,42.805,6.029,CST-1368DR,7007,9822,15267,0.090,551
2020-01-07T16:05:39,42.805,6.029,CST-1368DR,7007,9817,15259,0.093,551
2020-01-07T16:08:40,42.805,6.029,CST-1368DR,7007,9821,15266,0.091,551
2020-01-07T16:11:42,42.805,6.029,CST-1368DR,7007,9822,15267,0.090,551
2020-01-07T16:14:44,42.805,6.029,CST-1368DR,7007,9820,15264,0.091,551
2020-01-07T16:17:45,42.805,6.029,CST-1368DR,7007,9819,15262,0.092,551
2020-01-07T16:20:47,42.805,6.029,CST-1368DR,7006,9821,15267,0.090,551
2020-01-07T16:23:48,42.805,6.029,CST-1368DR,7007,9820,15264,0.091,551
2020-01-07T16:26:50,42.805,6.029,CST-1368DR,7007,9821,15265,0.091,551
2020-01-07T16:29:52,42.805,6.029,CST-1368DR,7007,9819,15263,0.091,551
2020-01-07T16:32:53,42.805,6.029,CST-1368DR,7007,9821,15265,0.091,551
2020-01-07T16:35:55,42.805,6.029,CST-1368DR,7006,9821,15267,0.090,551
2020-01-07T16:38:57,42.805,6.029,CST-1368DR,7007,9821,15266,0.091,551
2020-01-07T16:41:58,42.805,6.029,CST-1368DR,7006,9819,15265,0.091,551
2020-01-07T16:45:00,42.805,6.029,CST-1368DR,7006,9819,15264,0.091,551
2020-01-07T16:48:02,42.805,6.029,CST-1368DR,7006,9814,15257,0.093,551
2020-01-07T16:51:03,42.805,6.029,CST-1368DR,7006,9821,15267,0.090,550
2020-01-07T16:54:05,42.805,6.029,CST-1368DR,7006,9819,15264,0.091,551